Regional Weather Roundup
Issued by NWS

Home | Current Version | Previous Version | Graphics & Text | Print | Product List | Glossary On
Versions: 1 2 3 4 5 6 7 8 9 10 11 12 13 14 15 16 17 18 19 20 21 22 23 24 25 26 27 28 29 30 31 32 33 34 35 36 37 38 39 40 41 42 43 44 45 46 47 48 49 50
000
ASUS43 KBIS 182302
RWRND

NORTH DAKOTA REGIONAL WEATHER ROUNDUP
NATIONAL WEATHER SERVICE BISMARCK ND
600 PM CDT WED OCT 18 2017

NOTE: "FAIR" INDICATES FEW OR NO CLOUDS BELOW 12,000 FEET WITH NO
SIGNIFICANT WEATHER AND/OR OBSTRUCTIONS TO VISIBILITY.


NDZ001>003-009>011-017-190000-
NORTHWEST NORTH DAKOTA

CITY           SKY/WX    TMP DP  RH WIND       PRES   REMARKS
WILLISTON      CLEAR     56  25  30 W9        29.90F
MINOT          CLEAR     55  20  25 W18G30    29.89R
MINOT AFB      CLEAR     54  21  27 W25G32    29.86S
$$

NDZ018>021-031>035-040>046-190000-
SOUTHWEST NORTH DAKOTA

CITY           SKY/WX    TMP DP  RH WIND       PRES   REMARKS
BISMARCK       PTCLDY    58  22  24 W9        29.96S
DICKINSON      CLOUDY    56  24  29 W10       29.92F
GARRISON         N/A     55  22  27 W16       29.91S
HETTINGER ARPT CLEAR     60  24  25 SW12      29.98F
$$

NDZ004>008-012>016-024-026-027-054-190000-
NORTHEAST NORTH DAKOTA

CITY           SKY/WX    TMP DP  RH WIND       PRES   REMARKS
GRAND FORKS    PTCLDY    59  16  18 W21G36    29.84R
GRND FRKS AFB  CLEAR     57  15  19 W17G30    29.85R
DEVILS LAKE    CLEAR     54  21  27 W22       29.86R
$$

NDZ022-023-025-028>030-036>039-047>053-190000-
SOUTHEAST NORTH DAKOTA

CITY           SKY/WX    TMP DP  RH WIND       PRES   REMARKS
FARGO          PTCLDY    58  18  21 W17       29.90R
JAMESTOWN      CLEAR     55  21  26 W13       29.93R
$$





USA.gov is the U.S. government's official web portal to all federal, state and local government web resources and services.